Location: Joplin, MO
(37.0842°N, 94.5133°W)
Time: 17:45:58
(UTC+02:00)

S-56A Canister/Altair - All Passes

Search period start: 31 March 2023 00:00
Search period end: 10 April 2023 00:00
Orbit: 639 x 2493 km, 38.9° (Epoch: 30 March)

Date Brightness Start Highest point End Pass type
(mag) Time Alt. Az. Time Alt. Az. Time Alt. Az.
31 Mar - 01:06:21 10° SW 01:15:02 65° SSE 01:27:57 10° ENE daylight
31 Mar - 03:10:04 10° W 03:20:58 84° N 03:35:52 10° E visible
31 Mar - 05:15:09 10° WNW 05:28:12 89° S 05:43:31 10° ESE visible
31 Mar - 07:20:58 10° WNW 07:34:55 57° SSW 07:48:53 10° SE visible
31 Mar - 09:29:33 10° W 09:39:47 23° SW 09:49:20 10° S visible
31 Mar - 22:34:31 10° SSE 22:38:59 17° SE 22:44:28 10° E daylight
01 Apr - 00:33:49 10° SW 00:41:53 59° SSE 00:53:57 10° ENE daylight
01 Apr - 02:37:11 10° W 02:47:23 86° N 03:01:52 10° E visible
01 Apr - 04:42:00 10° W 04:54:25 88° NNE 05:09:45 10° ESE visible
01 Apr - 06:47:31 10° WNW 07:01:14 62° SSW 07:15:40 10° SE visible
01 Apr - 08:55:16 10° W 09:06:27 26° SW 09:17:05 10° S visible
01 Apr - 22:03:41 10° SE 22:06:20 12° SE 22:09:17 10° ESE daylight
02 Apr - 00:01:24 10° SW 00:08:50 52° SE 00:19:58 10° ENE daylight
02 Apr - 02:04:22 10° WSW 02:13:53 88° NNW 02:27:51 10° E daylight
02 Apr - 04:08:55 10° W 04:20:40 86° N 04:35:53 10° E visible
02 Apr - 06:14:09 10° WNW 06:27:31 66° SSW 06:42:18 10° SE visible
02 Apr - 08:21:14 10° W 08:33:02 30° SW 08:44:36 10° S visible
02 Apr - 23:29:03 10° SSW 23:35:54 44° SE 23:46:00 10° ENE daylight
03 Apr - 01:31:37 10° WSW 01:40:29 89° SSE 01:53:50 10° ENE daylight
03 Apr - 03:35:56 10° W 03:46:59 84° N 04:01:57 10° E visible
03 Apr - 05:40:53 10° WNW 05:53:48 70° SSW 06:08:50 10° SE visible
03 Apr - 07:47:24 10° W 07:59:34 34° SW 08:11:54 10° SSE visible
03 Apr - 22:56:48 10° SSW 23:03:02 37° SE 23:12:02 10° ENE daylight
04 Apr - 00:58:56 10° WSW 01:07:12 86° SSE 01:19:50 10° ENE daylight
04 Apr - 03:03:00 10° W 03:13:22 83° N 03:27:57 10° E visible
04 Apr - 05:07:43 10° WNW 05:20:06 74° SSW 05:35:14 10° ESE visible
04 Apr - 07:13:44 10° W 07:26:03 38° SW 07:39:02 10° SSE visible
04 Apr - 22:24:41 10° SSW 22:30:17 31° SE 22:38:05 10° E daylight
05 Apr - 00:26:21 10° WSW 00:34:00 81° SSE 00:45:52 10° ENE daylight
05 Apr - 02:30:09 10° W 02:39:50 82° N 02:53:55 10° E daylight
05 Apr - 04:34:39 10° WNW 04:46:26 78° SSW 05:01:31 10° ESE visible
05 Apr - 06:40:13 10° WNW 06:52:30 42° SW 07:06:00 10° SSE visible
05 Apr - 08:51:47 10° WSW 08:57:11 13° SW 09:02:35 10° SSW visible
05 Apr - 21:52:41 10° S 21:57:35 25° SE 22:04:07 10° E daylight
05 Apr - 23:53:47 10° WSW 00:00:54 75° SSE 00:11:56 10° ENE daylight
06 Apr - 01:57:21 10° W 02:06:23 81° N 02:19:52 10° E daylight
06 Apr - 04:01:40 10° WNW 04:12:48 82° SSW 04:27:43 10° ESE visible
06 Apr - 06:06:50 10° WNW 06:18:55 46° SW 06:32:48 10° SSE visible
06 Apr - 08:16:31 10° W 08:23:52 16° SW 08:31:22 10° SSW visible
06 Apr - 21:20:52 10° S 21:24:57 19° SE 21:30:05 10° E daylight
06 Apr - 23:21:18 10° SW 23:27:54 68° SSE 23:38:04 10° ENE daylight
07 Apr - 01:24:37 10° W 01:33:00 81° N 01:45:49 10° E daylight
07 Apr - 03:28:44 10° WNW 03:39:13 85° SSW 03:53:50 10° ESE visible
07 Apr - 05:33:35 10° WNW 05:45:20 50° SW 05:59:29 10° SE visible
07 Apr - 07:41:58 10° W 07:50:30 19° SW 07:59:26 10° S visible
07 Apr - 20:49:23 10° SSE 20:52:21 14° SE 20:55:48 10° E daylight
07 Apr - 22:48:52 10° SW 22:54:58 61° SSE 23:04:17 10° ENE daylight
08 Apr - 00:51:56 10° W 00:59:44 82° N 01:11:48 10° E daylight
08 Apr - 02:55:53 10° WNW 03:05:42 88° SSW 03:19:52 10° ESE visible
08 Apr - 05:00:26 10° WNW 05:11:46 54° SSW 05:26:03 10° SE visible
08 Apr - 07:07:50 10° W 07:17:06 22° SW 07:27:07 10° S visible
08 Apr - 22:16:29 10° SW 22:22:09 52° SSE 22:30:33 10° ENE daylight
09 Apr - 00:19:18 10° W 00:26:32 83° N 00:37:50 10° E daylight
09 Apr - 02:23:05 10° WNW 02:32:16 89° NNE 02:45:53 10° ESE daylight
09 Apr - 04:27:22 10° WNW 04:38:14 58° SSW 04:52:29 10° SE visible
09 Apr - 06:34:00 10° W 06:43:40 25° SW 06:54:30 10° S visible
09 Apr - 21:44:11 10° SW 21:49:24 44° SE 21:56:53 10° ENE daylight
